Flag for Canada Weather past 2 weeks in Montreal, Quebec, Canada

Now
72 °F

Passing clouds.


Feels Like: 75 °F
Forecast: 65 / 73 °F
Wind: 13 mph from Southwest

Location: Montreal - Pierre Elliot Trudeau International Aiport

Current Time: May 28, 2015 at 12:51:52 AM

Latest Report: May 28, 2015 at 12:00 AM


Visibility: 15 mi

Pressure: 29.92 "Hg

Humidity: 69%

Dew point: 61 °F

Location of MontrealLocation

Historic Weather in Montreal — Graph

°F

Montreal temperature yesterday

Maximum temperature yesterday: 82 °F (at 3:00 PM)
Minimum temperature yesterday: 68 °F (at 1:00 AM)
Average temperature yesterday: 76 °F

Past Weeks' High & Low Weather Summary

 TemperatureHumidityPressure
High82 °F (May 18, 3:00 PM)100% (May 26, 12:00 AM)30.40 "Hg (May 26, 12:00 AM)
Low37 °F (May 23, 4:00 AM)21% (May 15, 5:00 PM)29.62 "Hg (May 19, 5:00 PM)
Average61 °F56%30.02 "Hg
* Reported Midnight between May 12 and May 13 — Midnight between May 27 and May 28, Montreal, Weather by CustomWeather, © 2015

Note: Actual official high and low records may vary slightly from our data, if they occured in-between our weather recording intervals... More about our weather records

Advertising

Montreal weather history for previous 24 hours

 ConditionsComfort  
Time TempWeatherWind HumidityBarometerVisibility
12:00 AM
Thu, May 28
72 °FPassing clouds.13 mph69%29.92 "Hg15 mi
11:00 PM
Wed, May 27
72 °FClear.13 mph69%29.91 "Hg15 mi
10:00 PM73 °FPassing clouds.12 mph61%29.92 "Hg15 mi
9:00 PM73 °FScattered clouds.10 mph65%29.90 "Hg15 mi
8:00 PM77 °FScattered clouds.15 mph57%29.90 "Hg15 mi
7:00 PM79 °FScattered clouds.18 mph54%29.88 "Hg15 mi
6:00 PM81 °FBroken clouds.22 mph54%29.88 "Hg15 mi
5:00 PM79 °FBroken clouds.21 mph58%29.88 "Hg15 mi
4:00 PM81 °FBroken clouds.24 mph58%29.89 "Hg15 mi
3:00 PM82 °FPartly sunny.21 mph58%29.90 "Hg15 mi
2:00 PM81 °FBroken clouds.18 mph66%29.92 "Hg15 mi
1:00 PM79 °FScattered showers. Mostly cloudy.20 mph65%29.93 "Hg15 mi
12:00 PM81 °FCloudy.17 mph66%29.94 "Hg15 mi
11:00 AM79 °FCloudy.16 mph70%29.95 "Hg15 mi
10:00 AM79 °FBroken clouds.12 mph70%29.95 "Hg15 mi
9:00 AM77 °FBroken clouds.12 mph69%29.95 "Hg15 mi
8:00 AM77 °FPartly sunny.10 mph69%29.95 "Hg15 mi
7:00 AM73 °FPartly sunny.12 mph74%29.96 "Hg15 mi
6:00 AM70 °FPartly cloudy.9 mph78%29.96 "Hg15 mi
5:00 AM70 °FPartly cloudy.9 mph78%29.96 "Hg15 mi
4:00 AM72 °FPassing clouds.7 mph73%29.95 "Hg15 mi
3:00 AM72 °FPassing clouds.9 mph73%29.97 "Hg15 mi
2:00 AM70 °FPassing clouds.8 mph78%29.98 "Hg15 mi
1:00 AM68 °FPassing clouds.No wind78%29.99 "Hg15 mi
12:00 AM70 °FClear.8 mph73%30.00 "Hg15 mi
Weather by CustomWeather, © 2015

See weather overviewHow to use our weather pages